| time (UTC) | temp F | wind direction | speed MPH | gust MPH | rain 1hr in | rain 24hr in | rain mn in | humidity % | barometer mb |
| 20260503190029 | 83 | 0 | 0.0 | 2.0 | 0.00 | 0.01 | 0.01 | 48 | 1009.2 |
| 20260503184534 | 82 | 210 | 0.0 | 2.0 | 0.00 | 0.01 | 0.01 | 51 | 1009.2 |
| 20260503183031 | 81 | 262 | 0.0 | 3.0 | 0.00 | 0.01 | 0.01 | 50 | 1009.4 |
| 20260503181528 | 80 | 0 | 0.0 | 3.0 | 0.00 | 0.01 | 0.01 | 51 | 1009.4 |
| 20260503180034 | 78 | 226 | 1.0 | 5.0 | 0.00 | 0.01 | 0.01 | 53 | 1009.4 |
| 20260503174533 | 77 | 284 | 0.0 | 3.0 | 0.00 | 0.01 | 0.01 | 54 | 1009.5 |
| 20260503173034 | 74 | 229 | 1.0 | 5.0 | 0.00 | 0.01 | 0.01 | 53 | 1009.7 |
| 20260503171537 | 73 | 356 | 1.0 | 6.0 | 0.00 | 0.01 | 0.01 | 54 | 1009.8 |
| 20260503081534 | 56 | 0 | 0.0 | 1.0 | 0.00 | 0.01 | 0.00 | 92 | 1010.6 |
| 20260503071549 | 58 | 0 | 0.0 | 2.0 | 0.00 | 0.01 | 0.00 | 90 | 1011.1 |
| 20260503054529 | 58 | 0 | 0.0 | 1.0 | 0.00 | 0.01 | 0.01 | 89 | 1011.2 |
| 20260503053036 | 59 | 317 | 0.0 | 1.0 | 0.00 | 0.01 | 0.01 | 88 | 1010.7 |
| 20260503051529 | 60 | 0 | 0.0 | 1.0 | 0.00 | 0.01 | 0.01 | 87 | 1010.7 |
| 20260503050028 | 60 | 0 | 0.0 | 1.0 | 0.00 | 0.01 | 0.01 | 87 | 1011.0 |
| 20260503044542 | 60 | 0 | 0.0 | 1.0 | 0.00 | 0.01 | 0.01 | 85 | 1011.1 |
| 20260503043042 | 62 | 0 | 0.0 | 2.0 | 0.00 | 0.01 | 0.01 | 83 | 1011.3 |
| 20260503041527 | 63 | 0 | 0.0 | 2.0 | 0.00 | 0.01 | 0.01 | 81 | 1011.3 |
| 20260503040033 | 62 | 42 | 1.0 | 3.0 | 0.00 | 0.01 | 0.01 | 82 | 1011.0 |
| 20260503034530 | 63 | 0 | 0.0 | 3.0 | 0.00 | 0.01 | 0.01 | 81 | 1011.0 |
| 20260503033029 | 63 | 38 | 1.0 | 3.0 | 0.00 | 0.01 | 0.01 | 81 | 1010.9 |
| 20260503031532 | 63 | 0 | 0.0 | 1.0 | 0.00 | 0.01 | 0.01 | 79 | 1011.0 |
| 20260503030028 | 64 | 265 | 0.0 | 6.0 | 0.00 | 0.01 | 0.01 | 78 | 1010.9 |
| 20260503024528 | 65 | 243 | 1.0 | 3.0 | 0.00 | 0.01 | 0.01 | 75 | 1010.8 |
| 20260503023030 | 66 | 207 | 1.0 | 6.0 | 0.00 | 0.01 | 0.01 | 74 | 1010.8 |
| 20260503021529 | 67 | 155 | 1.0 | 3.0 | 0.00 | 0.01 | 0.01 | 74 | 1010.8 |
| 20260503020030 | 67 | 0 | 0.0 | 0.0 | 0.00 | 0.01 | 0.01 | 74 | 1010.2 |
| 20260503014528 | 68 | 0 | 0.0 | 0.0 | 0.00 | 0.01 | 0.01 | 73 | 1010.0 |
| 20260503013028 | 68 | 0 | 0.0 | 0.0 | 0.00 | 0.01 | 0.01 | 72 | 1010.0 |
| 20260503011535 | 68 | 0 | 0.0 | 0.0 | 0.00 | 0.01 | 0.01 | 72 | 1009.9 |
| 20260503010036 | 69 | 0 | 0.0 | 0.0 | 0.00 | 0.01 | 0.01 | 71 | 1010.0 |
| 20260503004527 | 70 | 0 | 0.0 | 1.0 | 0.00 | 0.01 | 0.01 | 70 | 1010.0 |
| 20260503003027 | 70 | 232 | 0.0 | 1.0 | 0.00 | 0.01 | 0.01 | 70 | 1010.1 |
| 20260503001530 | 69 | 0 | 0.0 | 3.0 | 0.00 | 0.01 | 0.01 | 71 | 1010.0 |
| 20260503000042 | 69 | 254 | 1.0 | 4.0 | 0.00 | 0.01 | 0.01 | 68 | 1010.1 |
| 20260502234529 | 69 | 224 | 0.0 | 3.0 | 0.00 | 0.01 | 0.01 | 69 | 1010.2 |
| 20260502233029 | 71 | 236 | 2.0 | 6.0 | 0.00 | 0.01 | 0.01 | 65 | 1010.2 |
| 20260502231535 | 72 | 0 | 1.0 | 4.0 | 0.00 | 0.01 | 0.01 | 67 | 1010.4 |
| 20260502230030 | 71 | 268 | 2.0 | 5.0 | 0.00 | 0.01 | 0.01 | 67 | 1010.4 |
| 20260502224528 | 72 | 246 | 1.0 | 2.0 | 0.00 | 0.01 | 0.01 | 67 | 1010.4 |
| 20260502223031 | 71 | 0 | 0.0 | 3.0 | 0.00 | 0.01 | 0.01 | 72 | 1010.7 |
| 20260502221528 | 69 | 30 | 1.0 | 4.0 | 0.00 | 0.01 | 0.01 | 65 | 1011.1 |
| 20260502220028 | 68 | 0 | 1.0 | 4.0 | 0.00 | 0.01 | 0.01 | 68 | 1011.4 |
| 20260502214527 | 68 | 104 | 1.0 | 4.0 | 0.00 | 0.01 | 0.01 | 70 | 1011.5 |
| 20260502213037 | 67 | 0 | 0.0 | 2.0 | 0.00 | 0.01 | 0.01 | 72 | 1011.5 |
| 20260502211534 | 66 | 249 | 0.0 | 3.0 | 0.00 | 0.01 | 0.01 | 70 | 1011.7 |
| 20260502210028 | 65 | 236 | 0.0 | 2.0 | 0.00 | 0.01 | 0.01 | 72 | 1012.2 |
| 20260502204530 | 63 | 0 | 0.0 | 4.0 | 0.00 | 0.01 | 0.01 | 73 | 1012.4 |
| 20260502203030 | 63 | 224 | 1.0 | 5.0 | 0.00 | 0.01 | 0.01 | 74 | 1012.5 |
| 20260502201529 | 63 | 178 | 0.0 | 5.0 | 0.00 | 0.01 | 0.01 | 75 | 1012.7 |
| 20260502200029 | 62 | 219 | 1.0 | 7.0 | 0.00 | 0.01 | 0.01 | 76 | 1012.9 |
| 20260502194527 | 62 | 271 | 1.0 | 5.0 | 0.00 | 0.01 | 0.01 | 79 | 1013.1 |
| 20260502193028 | 59 | 313 | 1.0 | 4.0 | 0.00 | 0.01 | 0.01 | 84 | 1013.1 |
| 20260502191529 | 57 | 155 | 0.0 | 3.0 | 0.00 | 0.01 | 0.01 | 86 | 1013.3 |